Location: Austin
(30.3000°N, 97.7500°W)
Time: 03:44:42
(UTC-05:00)

ISS - Pass Details

Date: 18 March 2023
Orbit: 413 x 423 km, 51.6° (Epoch: 02 April)

Event Time Altitude Azimuth Distance (km) Brightness Sun altitude
Rises 20:13:45 0° 257° (WSW) 2,347 1.8 -7.9°
Reaches altitude 10° 20:16:17 10° 277° (W) 1,484 0.8 -8.4°
Maximum altitude 20:18:41 18° 323° (NW) 1,090 -1.1 -8.9°
Drops below altitude 10° 20:21:04 10° 9° (N) 1,485 -1.0 -9.4°
Enters shadow 20:24:30 -3° 33° (NNE) 2,676 0.1 -10.2°
